FW8424 Weather Reports


time (UTC)temp
C
wind
direction
speed
KPH
gust
KPH
rain 1hr
cm
rain 24hr
cm
rain mn
cm
humidity
%
barometer
mb
20260504001606 10 261 3.2 14.5 0.00 0.00 0.00 73 1007.2
20260504001054 10 0 3.2 12.9 0.00 0.00 0.00 73 1007.3
20260504000553 10 253 3.2 16.1 0.00 0.00 0.00 73 1007.2
20260504000129 10 233 3.2 16.1 0.00 0.00 0.00 73 1007.1
20260503235553 10 208 4.8 16.1 0.00 0.00 0.00 73 1007.1
20260503235053 10 267 4.8 17.7 0.00 0.00 0.00 73 1007.2
20260503234557 10 268 6.4 17.7 0.00 0.00 0.00 73 1007.4
20260503234055 10 223 6.4 16.1 0.00 0.00 0.00 73 1007.3
20260503233553 10 240 6.4 16.1 0.00 0.00 0.00 73 1007.3
20260503233058 10 234 3.2 19.3 0.00 0.00 0.00 73 1007.3
20260503232554 10 247 6.4 19.3 0.00 0.00 0.00 73 1007.4
20260503232053 10 256 4.8 17.7 0.00 0.00 0.00 73 1007.6
20260503231556 10 252 3.2 22.5 0.00 0.00 0.00 73 1007.5
20260503231058 10 279 6.4 22.5 0.00 0.00 0.00 73 1007.6
20260503230558 10 252 12.9 22.5 0.00 0.00 0.00 73 1007.6
20260503225557 10 305 8.0 22.5 0.00 0.00 0.00 75 1007.6
20260503225057 10 267 9.7 22.5 0.00 0.00 0.00 75 1007.6
20260503224557 10 325 12.9 27.4 0.00 0.00 0.00 74 1007.8
20260503224057 10 251 9.7 27.4 0.00 0.00 0.00 75 1007.8
20260503223557 10 269 12.9 24.1 0.00 0.00 0.00 75 1007.9
20260503223054 10 273 9.7 24.1 0.00 0.00 0.00 76 1007.8
20260503222600 10 212 11.3 24.1 0.00 0.00 0.00 76 1007.8
20260503222057 10 261 12.9 24.1 0.00 0.00 0.00 76 1007.8
20260503221558 10 252 8.0 20.9 0.00 0.00 0.00 77 1008.0
20260503221058 10 258 6.4 20.9 0.00 0.00 0.00 77 1007.9
20260503220558 10 260 6.4 20.9 0.00 0.00 0.00 77 1008.0
20260503220058 10 268 8.0 19.3 0.00 0.00 0.00 77 1008.0
20260503215557 10 269 8.0 25.7 0.00 0.00 0.00 77 1008.1
20260503215057 10 269 6.4 25.7 0.00 0.00 0.00 76 1008.0
20260503214556 10 275 8.0 22.5 0.00 0.00 0.00 76 1008.1
20260503214057 10 294 6.4 20.9 0.00 0.00 0.00 76 1008.1
20260503213557 10 330 9.7 29.0 0.00 0.00 0.00 76 1008.1
20260503213058 10 279 9.7 29.0 0.00 0.00 0.00 75 1008.1
20260503212558 10 309 11.3 25.7 0.00 0.00 0.00 74 1008.1
20260503212058 10 266 11.3 41.8 0.00 0.00 0.00 73 1008.1
20260503211558 10 313 6.4 41.8 0.00 0.00 0.00 72 1008.0
20260503211057 11 271 14.5 33.8 0.00 0.00 0.00 71 1008.0
20260503210557 11 319 11.3 32.2 0.00 0.00 0.00 71 1008.0
20260503210058 11 252 16.1 41.8 0.00 0.00 0.00 70 1007.9
20260503205558 11 296 20.9 41.8 0.00 0.00 0.00 68 1007.9
20260503205058 12 293 17.7 37.0 0.00 0.00 0.00 63 1007.8
20260503204557 12 254 12.9 35.4 0.00 0.00 0.00 60 1007.6
20260503204057 13 255 17.7 35.4 0.00 0.00 0.00 59 1007.7
20260503203558 13 253 9.7 37.0 0.00 0.00 0.00 57 1007.6
20260503203057 13 309 17.7 37.0 0.00 0.00 0.00 53 1007.4
20260503202558 13 314 9.7 37.0 0.00 0.00 0.00 51 1007.3
20260503202058 12 247 6.4 16.1 0.00 0.00 0.00 51 1007.3
20260503201556 12 254 4.8 11.3 0.00 0.00 0.00 51 1007.2
20260503201057 12 274 3.2 9.7 0.00 0.00 0.00 52 1007.2
20260503200552 12 271 1.6 8.0 0.00 0.00 0.00 51 1007.3
20260503200106 12 0 0.0 8.0 0.00 0.00 0.00 51 1007.3
20260503195556 12 196 0.0 8.0 0.00 0.00 0.00 50 1007.5
20260503195053 12 170 1.6 9.7 0.00 0.00 0.00 50 1007.6
20260503194556 12 161 1.6 12.9 0.00 0.00 0.00 51 1007.4
20260503194057 13 200 3.2 12.9 0.00 0.00 0.00 49 1007.4
20260503193556 13 194 3.2 11.3 0.00 0.00 0.00 50 1007.4
20260503193107 12 180 4.8 11.3 0.00 0.00 0.00 50 1007.5
20260503192556 12 178 3.2 16.1 0.00 0.00 0.00 51 1007.6
20260503192053 12 163 4.8 16.1 0.00 0.00 0.00 51 1007.7
20260503191605 12 173 6.4 17.7 0.00 0.00 0.00 52 1007.8
20260503191056 12 198 3.2 17.7 0.00 0.00 0.00 53 1008.0
20260503190557 12 0 3.2 19.3 0.00 0.00 0.00 50 1008.2
20260503190104 12 148 3.2 19.3 0.00 0.00 0.00 49 1008.3
20260503185555 12 94 4.8 16.1 0.00 0.00 0.00 48 1008.3
20260503185056 12 180 6.4 22.5 0.00 0.00 0.00 47 1008.4
20260503184559 12 197 6.4 22.5 0.00 0.00 0.00 47 1008.5
20260503184054 12 225 8.0 20.9 0.00 0.00 0.00 47 1008.6
20260503183554 12 164 8.0 19.3 0.00 0.00 0.00 45 1008.7
20260503183116 13 225 8.0 20.9 0.00 0.00 0.00 43 1008.7
20260503182554 13 159 9.7 20.9 0.00 0.00 0.00 41 1008.9
20260503182053 13 186 4.8 19.3 0.00 0.00 0.00 42 1009.0
20260503181620 13 195 8.0 16.1 0.00 0.00 0.00 41 1009.0
20260503181053 13 176 6.4 16.1 0.00 0.00 0.00 43 1009.1
20260503180553 13 193 4.8 25.7 0.00 0.00 0.00 41 1009.1
20260503180111 13 163 8.0 29.0 0.00 0.00 0.00 42 1009.3
20260503175554 13 171 8.0 29.0 0.00 0.00 0.00 42 1009.2
20260503175057 13 274 1.6 17.7 0.00 0.00 0.00 42 1009.4
20260503174556 12 155 8.0 17.7 0.00 0.00 0.00 43 1009.4
20260503174053 12 251 6.4 24.1 0.00 0.00 0.00 43 1009.5
20260503173554 12 211 8.0 24.1 0.00 0.00 0.00 43 1009.7
20260503173101 12 196 9.7 25.7 0.00 0.00 0.00 42 1009.8
20260503172559 12 0 8.0 25.7 0.00 0.00 0.00 43 1009.8
20260503172055 12 189 8.0 17.7 0.00 0.00 0.00 42 1009.8
20260503171558 12 209 9.7 19.3 0.00 0.00 0.00 44 1010.0
20260503171056 12 198 6.4 22.5 0.00 0.00 0.00 43 1010.1
20260503170556 12 217 6.4 22.5 0.00 0.00 0.00 45 1010.2
20260503150554 10 240 4.8 14.5 0.00 0.00 0.00 51 1011.5
20260503131055 6 233 3.2 11.3 0.00 0.00 0.00 62 1012.3
20260503130600 6 262 3.2 11.3 0.00 0.00 0.00 62 1012.4
20260503110555 0 0 0.0 1.6 0.00 0.00 0.00 79 1012.3
20260503100107 -1 0 0.0 0.0 0.00 0.00 0.00 80 1012.3
20260503090105 -1 0 0.0 0.0 0.00 0.00 0.00 80 1012.8
20260503081557 -1 0 0.0 0.0 0.00 0.00 0.00 78 1013.0
20260503081058 -1 0 0.0 0.0 0.00 0.00 0.00 77 1013.1
20260503080558 -1 0 0.0 0.0 0.00 0.00 0.00 77 1013.1
20260503072556 -1 0 0.0 0.0 0.00 0.00 0.00 76 1013.1
20260503072057 -1 0 0.0 0.0 0.00 0.00 0.00 76 1013.1
20260503071606 -1 0 0.0 0.0 0.00 0.00 0.00 76 1013.0
20260503071056 -1 0 0.0 0.0 0.00 0.00 0.00 75 1013.1
20260503070556 -1 0 0.0 0.0 0.00 0.00 0.00 75 1013.1
20260503070113 -1 0 0.0 0.0 0.00 0.00 0.00 75 1013.2
20260503060120 0 0 0.0 0.0 0.00 0.00 0.00 71 1013.6
20260503055058 0 0 0.0 0.0 0.00 0.00 0.00 70 1013.7
20260503054600 0 0 0.0 0.0 0.00 0.00 0.00 71 1013.7
20260503054055 0 0 0.0 0.0 0.00 0.00 0.00 71 1013.7
20260503053555 0 0 0.0 0.0 0.00 0.00 0.00 71 1013.8
20260503053055 0 0 0.0 0.0 0.00 0.00 0.00 71 1013.8
20260503052554 0 0 0.0 1.6 0.00 0.00 0.00 70 1013.9
20260503052058 0 0 0.0 1.6 0.00 0.00 0.00 70 1013.9
20260503051556 0 0 0.0 0.0 0.00 0.00 0.00 70 1013.9
20260503051054 0 0 0.0 0.0 0.00 0.00 0.00 70 1013.9
20260503050554 0 0 0.0 0.0 0.00 0.00 0.00 70 1013.9
20260503050055 0 0 0.0 0.0 0.00 0.00 0.00 70 1013.9
20260503045557 0 0 0.0 0.0 0.00 0.00 0.00 69 1013.9
20260503045055 0 0 0.0 0.0 0.00 0.00 0.00 69 1013.9
20260503044557 0 0 0.0 0.0 0.00 0.00 0.00 68 1014.0
20260503044056 0 0 0.0 0.0 0.00 0.00 0.00 67 1014.0
20260503043556 0 0 0.0 0.0 0.00 0.00 0.00 67 1014.0
20260503043057 1 0 0.0 0.0 0.00 0.00 0.00 67 1014.1
20260503042554 1 0 0.0 0.0 0.00 0.00 0.00 67 1014.0
20260503042057 1 0 0.0 0.0 0.00 0.00 0.00 66 1014.0
20260503041558 1 0 0.0 0.0 0.00 0.00 0.00 67 1014.1
20260503041054 1 0 0.0 0.0 0.00 0.00 0.00 67 1014.0
20260503040554 1 0 0.0 3.2 0.00 0.00 0.00 67 1014.1
20260503040057 1 0 0.0 3.2 0.00 0.00 0.00 66 1014.2
20260503035555 1 0 0.0 1.6 0.00 0.00 0.00 66 1014.2
20260503035054 1 0 0.0 3.2 0.00 0.00 0.00 67 1014.2
20260503034611 1 0 0.0 3.2 0.00 0.00 0.00 67 1014.1
20260503034058 1 0 0.0 3.2 0.00 0.00 0.00 67 1014.2
20260503033557 1 0 0.0 0.0 0.00 0.00 0.00 67 1014.1
20260503033059 1 0 0.0 3.2 0.00 0.00 0.00 66 1014.1
20260503032556 1 0 0.0 3.2 0.00 0.00 0.00 66 1014.0
20260503032056 2 0 0.0 3.2 0.00 0.00 0.00 66 1013.9
20260503031559 2 0 0.0 3.2 0.00 0.00 0.00 66 1014.0
20260503031055 2 0 0.0 3.2 0.00 0.00 0.00 66 1014.0
20260503030557 2 264 0.0 3.2 0.00 0.00 0.00 65 1014.1
20260503030058 2 0 0.0 3.2 0.00 0.00 0.00 65 1014.1
20260503025554 2 269 0.0 4.8 0.00 0.00 0.00 64 1014.0
20260503025056 2 275 0.0 4.8 0.00 0.00 0.00 63 1014.1
20260503024556 2 0 0.0 6.4 0.00 0.00 0.00 63 1014.1
20260503024056 2 0 1.6 6.4 0.00 0.00 0.00 63 1014.1
20260503023554 2 0 0.0 4.8 0.00 0.00 0.00 63 1014.0
20260503023059 2 0 1.6 4.8 0.00 0.00 0.00 63 1014.0
20260503022555 2 0 0.0 6.4 0.00 0.00 0.00 63 1014.1
20260503022054 2 0 0.0 6.4 0.00 0.00 0.00 64 1014.1
20260503021556 3 0 0.0 6.4 0.00 0.00 0.00 63 1014.0
20260503021057 3 257 1.6 6.4 0.00 0.00 0.00 64 1014.2
20260503020557 3 0 0.0 4.8 0.00 0.00 0.00 64 1014.2
20260503020056 3 0 0.0 4.8 0.00 0.00 0.00 64 1014.2
20260503015555 3 0 0.0 3.2 0.00 0.00 0.00 63 1014.2
20260503015055 3 0 0.0 3.2 0.00 0.00 0.00 63 1014.2
20260503014558 3 0 0.0 3.2 0.00 0.00 0.00 62 1014.1
20260503014055 3 0 0.0 3.2 0.00 0.00 0.00 60 1014.1
20260503013556 4 0 0.0 3.2 0.00 0.00 0.00 60 1014.0
20260503013103 4 0 0.0 1.6 0.00 0.00 0.00 59 1014.0
20260503012554 4 0 0.0 1.6 0.00 0.00 0.00 59 1014.0
20260503012053 4 0 0.0 3.2 0.00 0.00 0.00 59 1014.0
20260503011608 4 0 0.0 3.2 0.00 0.00 0.00 59 1014.0
20260503011056 4 0 0.0 3.2 0.00 0.00 0.00 60 1014.0
20260503010557 5 0 0.0 1.6 0.00 0.00 0.00 58 1013.9
20260503010122 5 0 0.0 4.8 0.00 0.00 0.00 57 1013.9
20260503005557 5 0 0.0 4.8 0.00 0.00 0.00 56 1013.9
20260503005059 5 0 0.0 4.8 0.00 0.00 0.00 56 1013.9
20260503004600 5 0 0.0 4.8 0.00 0.00 0.00 56 1013.8
20260503004057 5 0 0.0 4.8 0.00 0.00 0.00 54 1013.8
20260503003556 6 0 0.0 4.8 0.00 0.00 0.00 53 1013.8
20260503003111 6 0 1.6 9.7 0.00 0.00 0.00 52 1013.8
20260503002554 6 306 3.2 11.3 0.00 0.00 0.00 51 1013.8
20260503002054 6 294 3.2 12.9 0.00 0.00 0.00 52 1013.8